"read_dt","SO2 (ppb)","flags","PMT voltage (V)","lamp voltage (V)","lamp intensity (Hz)","internal temp (C)","react chamber temp (C)","sample flow (l/min)","pres (mmHg)","SO2 bkg (ppb)","SO2 coefficient"
2018-07-17 00:00:00,-1.945E-01,4C000000*,-703.0,968.235,91,27.7,44.8,0.408,736.6,2.1,1.050*
2018-07-17 00:01:00,-2.943E-01,4C000000*,-703.0,969.852,87,27.7,45.2,0.408,736.9,2.1,1.050*
2018-07-17 00:02:00,-3.112E-01,4C000000*,-702.6,968.639,90,27.6,44.8,0.408,736.9,2.1,1.050*
2018-07-17 00:03:00,-3.619E-01,4C000000*,-702.3,969.044,89,27.7,44.8,0.407,736.9,2.1,1.050*
2018-07-17 00:04:00,-3.324E-01,4C000000*,-703.0,967.022,88,27.7,45.1,0.407,736.9,2.1,1.050*
2018-07-17 00:05:00,-3.469E-01,4C000000*,-702.6,967.831,89,27.7,44.9,0.407,736.6,2.1,1.050*
2018-07-17 00:06:00,-2.038E-01,4C000000*,-703.0,969.044,91,27.7,44.9,0.408,736.9,2.1,1.050*
2018-07-17 00:07:00,-2.709E-01,4C000000*,-702.3,969.448,88,27.7,45.1,0.408,736.9,2.1,1.050*
2018-07-17 00:08:00,-2.698E-01,4C000000*,-703.0,967.831,90,27.7,44.8,0.407,736.6,2.1,1.050*
2018-07-17 00:09:00,-2.074E-01,4C000000*,-702.3,968.235,90,27.6,45.0,0.407,736.6,2.1,1.050*
2018-07-17 00:10:00,-2.898E-01,4C000000*,-703.0,967.427,90,27.6,44.8,0.408,736.9,2.1,1.050*
2018-07-17 00:11:00,-2.453E-01,4C000000*,-702.6,967.831,90,27.6,45.1,0.408,736.9,2.1,1.050*
2018-07-17 00:12:00,-3.015E-01,4C000000*,-702.3,969.044,89,27.5,44.9,0.408,736.9,2.1,1.050*
2018-07-17 00:13:00,-3.061E-01,4C000000*,-703.0,967.427,89,27.5,45.0,0.407,736.9,2.1,1.050*
2018-07-17 00:14:00,-3.286E-01,4C000000*,-703.0,968.235,91,27.6,45.0,0.408,736.9,2.1,1.050*
2018-07-17 00:15:00,-3.216E-01,4C000000*,-702.6,968.639,90,27.6,44.9,0.407,736.9,2.1,1.050*
2018-07-17 00:16:00,-2.621E-01,4C000000*,-702.3,968.639,91,27.7,45.1,0.407,736.9,2.1,1.050*
2018-07-17 00:17:00,-2.918E-01,4C000000*,-702.6,969.044,90,27.6,44.8,0.407,736.9,2.1,1.050*
2018-07-17 00:18:00,-3.015E-01,4C000000*,-702.6,970.256,90,27.7,44.9,0.408,736.9,2.1,1.050*
2018-07-17 00:19:00,-3.154E-01,4C000000*,-702.6,969.044,90,27.6,45.2,0.407,736.6,2.1,1.050*
2018-07-17 00:20:00,-1.997E-01,4C000000*,-703.0,967.427,90,27.6,44.8,0.408,736.9,2.1,1.050*
2018-07-17 00:21:00,-3.438E-01,4C000000*,-703.4,969.044,91,27.6,45.0,0.408,736.9,2.1,1.050*
2018-07-17 00:22:00,-3.076E-01,4C000000*,-703.0,968.639,90,27.6,45.0,0.408,736.9,2.1,1.050*
2018-07-17 00:23:00,-2.096E-01,4C000000*,-702.6,968.639,90,27.6,45.0,0.407,736.9,2.1,1.050*
2018-07-17 00:24:00,-3.129E-01,4C000000*,-702.6,970.256,90,27.6,45.1,0.408,736.9,2.1,1.050*
2018-07-17 00:25:00,-2.786E-01,4C000000*,-703.0,968.235,89,27.6,44.8,0.408,736.9,2.1,1.050*
2018-07-17 00:26:00,-2.774E-01,4C000000*,-702.6,968.235,90,27.6,45.1,0.407,736.9,2.1,1.050*
2018-07-17 00:27:00,-2.549E-01,4C000000*,-702.6,969.448,90,27.6,44.8,0.407,736.9,2.1,1.050*
2018-07-17 00:28:00,-3.553E-01,4C000000*,-702.6,969.448,90,27.7,44.9,0.408,736.9,2.1,1.050*
2018-07-17 00:29:00,-3.109E-01,4C000000*,-702.6,969.852,91,27.6,45.1,0.407,736.9,2.1,1.050*
2018-07-17 00:30:00,-2.923E-01,4C000000*,-702.6,968.639,90,27.5,44.9,0.408,737.2,2.1,1.050*
2018-07-17 00:31:00,-4.037E-01,4C000000*,-703.0,967.831,88,27.5,45.2,0.408,736.9,2.1,1.050*
2018-07-17 00:32:00,-2.327E-01,4C000000*,-702.6,968.639,90,27.5,44.8,0.408,736.9,2.1,1.050*
2018-07-17 00:33:00,-2.593E-01,4C000000*,-702.6,970.256,90,27.5,45.1,0.408,737.2,2.1,1.050*
2018-07-17 00:34:00,-3.242E-01,4C000000*,-702.6,968.235,90,27.6,45.0,0.408,736.9,2.1,1.050*
2018-07-17 00:35:00,-2.450E-01,4C000000*,-702.6,968.235,90,27.6,44.8,0.408,737.2,2.1,1.050*
2018-07-17 00:36:00,-2.904E-01,4C000000*,-702.3,968.235,89,27.6,45.2,0.408,736.9,2.1,1.050*
2018-07-17 00:37:00,-3.221E-01,4C000000*,-702.6,969.044,91,27.6,44.9,0.407,736.9,2.1,1.050*
2018-07-17 00:38:00,-3.142E-01,4C000000*,-703.0,968.235,90,27.6,44.8,0.408,736.9,2.1,1.050*
2018-07-17 00:39:00,-3.462E-01,4C000000*,-702.6,969.044,91,27.6,45.1,0.407,736.9,2.1,1.050*
2018-07-17 00:40:00,-3.596E-01,4C000000*,-702.6,968.235,91,27.6,44.8,0.408,736.9,2.1,1.050*
2018-07-17 00:41:00,-2.653E-01,4C000000*,-702.6,968.235,90,27.5,45.0,0.408,736.9,2.1,1.050*
2018-07-17 00:42:00,-3.034E-01,4C000000*,-702.6,968.639,91,27.5,45.1,0.407,736.9,2.1,1.050*
2018-07-17 00:43:00,-2.991E-01,4C000000*,-703.0,969.448,90,27.5,44.9,0.408,736.9,2.1,1.050*
2018-07-17 00:44:00,-2.933E-01,4C000000*,-702.6,968.639,88,27.6,45.1,0.407,737.2,2.1,1.050*
2018-07-17 00:45:00,-2.660E-01,4C000000*,-702.6,969.044,89,27.5,44.8,0.408,737.2,2.1,1.050*
2018-07-17 00:46:00,-3.608E-01,4C000000*,-702.6,967.427,90,27.5,45.1,0.408,737.2,2.1,1.050*
2018-07-17 00:47:00,-2.940E-01,4C000000*,-702.6,968.235,90,27.5,45.0,0.408,736.9,2.1,1.050*
2018-07-17 00:48:00,-2.758E-01,4C000000*,-703.0,969.448,92,27.6,44.8,0.407,736.9,2.1,1.050*
2018-07-17 00:49:00,-3.354E-01,4C000000*,-702.6,969.448,90,27.5,45.1,0.408,737.2,2.1,1.050*
2018-07-17 00:50:00,-3.157E-01,4C000000*,-703.0,968.235,91,27.5,44.9,0.408,737.2,2.1,1.050*
2018-07-17 00:51:00,-2.846E-01,4C000000*,-702.3,969.044,90,27.5,44.9,0.408,737.2,2.1,1.050*
2018-07-17 00:52:00,-2.635E-01,4C000000*,-703.0,969.448,90,27.6,45.1,0.408,737.2,2.1,1.050*
2018-07-17 00:53:00,-3.550E-01,4C000000*,-702.6,967.427,89,27.5,44.9,0.408,737.2,2.1,1.050*
2018-07-17 00:54:00,-2.962E-01,4C000000*,-702.6,967.427,89,27.5,45.2,0.407,737.2,2.1,1.050*
2018-07-17 00:55:00,-3.857E-01,4C000000*,-703.0,967.831,91,27.5,44.9,0.408,737.2,2.1,1.050*
2018-07-17 00:56:00,-1.945E-01,4C000000*,-702.6,968.235,90,27.5,45.0,0.407,737.2,2.1,1.050*
2018-07-17 00:57:00,-3.078E-01,4C000000*,-702.6,969.448,91,27.5,44.9,0.408,736.9,2.1,1.050*
2018-07-17 00:58:00,-2.489E-01,4C000000*,-703.0,967.831,90,27.4,45.0,0.407,737.2,2.1,1.050*
2018-07-17 00:59:00,-3.058E-01,4C000000*,-702.6,968.235,90,27.5,45.1,0.408,737.2,2.1,1.050*
2018-07-17 01:00:00,-2.622E-01,4C000000*,-703.0,968.639,88,27.5,44.9,0.408,737.2,2.1,1.050*
2018-07-17 01:01:00,-3.326E-01,4C000000*,-703.0,967.831,90,27.5,45.1,0.407,737.2,2.1,1.050*
2018-07-17 01:02:00,-2.676E-01,4C000000*,-702.6,968.235,90,27.5,44.8,0.408,737.2,2.1,1.050*
2018-07-17 01:03:00,-3.095E-01,4C000000*,-702.6,967.831,90,27.6,45.1,0.408,737.2,2.1,1.050*
2018-07-17 01:04:00,-2.535E-01,4C000000*,-703.0,968.235,89,27.4,44.8,0.407,737.2,2.1,1.050*
2018-07-17 01:05:00,-2.014E-01,4C000000*,-703.0,968.235,90,27.5,44.9,0.408,737.2,2.1,1.050*
2018-07-17 01:06:00,-2.753E-01,4C000000*,-703.0,969.044,90,27.4,45.1,0.408,737.2,2.1,1.050*
2018-07-17 01:07:00,-2.385E-01,4C000000*,-703.0,969.044,91,27.5,44.8,0.408,737.2,2.1,1.050*
2018-07-17 01:08:00,-2.894E-01,4C000000*,-703.0,969.044,91,27.4,45.0,0.408,737.5,2.1,1.050*
2018-07-17 01:09:00,-2.144E-01,4C000000*,-703.0,967.831,90,27.5,45.0,0.408,737.2,2.1,1.050*
2018-07-17 01:10:00,-2.448E-01,4C000000*,-703.0,967.831,90,27.4,44.8,0.408,737.2,2.1,1.050*
2018-07-17 01:11:00,-2.200E-01,4C000000*,-703.0,969.044,90,27.4,45.2,0.407,737.5,2.1,1.050*
2018-07-17 01:12:00,-3.196E-01,4C000000*,-703.0,967.427,90,27.4,44.8,0.407,737.2,2.1,1.050*
2018-07-17 01:13:00,-2.506E-01,4C000000*,-702.6,969.852,90,27.4,45.0,0.408,737.2,2.1,1.050*
2018-07-17 01:14:00,-2.861E-01,4C000000*,-702.6,968.639,89,27.5,44.8,0.408,737.2,2.1,1.050*
2018-07-17 01:15:00,-2.422E-01,4C000000*,-702.6,968.235,90,27.4,44.9,0.408,737.5,2.1,1.050*
2018-07-17 01:16:00,-2.853E-01,4C000000*,-702.6,969.044,91,27.4,45.1,0.408,737.2,2.1,1.050*
2018-07-17 01:17:00,-2.618E-01,4C000000*,-702.6,968.639,90,27.4,44.8,0.408,737.2,2.1,1.050*
2018-07-17 01:18:00,-3.052E-01,4C000000*,-702.6,967.427,89,27.4,45.0,0.408,737.5,2.1,1.050*
2018-07-17 01:19:00,-2.597E-01,4C000000*,-702.6,969.044,91,27.4,45.1,0.407,737.2,2.1,1.050*
2018-07-17 01:20:00,-2.633E-01,4C000000*,-702.6,969.044,91,27.5,44.8,0.408,737.2,2.1,1.050*
2018-07-17 01:21:00,-2.177E-01,4C000000*,-703.4,968.639,90,27.4,45.1,0.408,737.2,2.1,1.050*
2018-07-17 01:22:00,-1.949E-01,4C000000*,-702.6,968.639,90,27.4,45.0,0.408,737.2,2.1,1.050*
2018-07-17 01:23:00,-3.213E-01,4C000000*,-702.6,968.639,89,27.4,44.8,0.408,737.5,2.1,1.050*
2018-07-17 01:24:00,-3.080E-01,4C000000*,-702.6,968.235,91,27.5,45.1,0.408,737.5,2.1,1.050*
2018-07-17 01:25:00,-3.128E-01,4C000000*,-702.6,967.831,91,27.4,44.9,0.408,737.5,2.1,1.050*
2018-07-17 01:26:00,-2.840E-01,4C000000*,-702.6,967.427,89,27.3,44.9,0.408,737.5,2.1,1.050*
2018-07-17 01:27:00,-3.270E-01,4C000000*,-703.0,968.639,90,27.4,45.1,0.407,737.5,2.1,1.050*
2018-07-17 01:28:00,-2.868E-01,4C000000*,-702.6,968.639,89,27.4,44.8,0.408,737.5,2.1,1.050*
2018-07-17 01:29:00,-2.791E-01,4C000000*,-702.3,966.618,89,27.4,45.1,0.408,737.5,2.1,1.050*
2018-07-17 01:30:00,-2.691E-01,4C000000*,-703.0,967.831,91,27.4,44.9,0.408,737.5,2.1,1.050*
2018-07-17 01:31:00,-2.332E-01,4C000000*,-703.0,967.831,91,27.4,45.1,0.408,737.5,2.1,1.050*
2018-07-17 01:32:00,-2.151E-01,4C000000*,-703.0,966.618,88,27.3,44.9,0.408,737.2,2.1,1.050*
2018-07-17 01:33:00,-2.381E-01,4C000000*,-702.6,969.044,90,27.4,45.0,0.408,737.5,2.1,1.050*
2018-07-17 01:34:00,-2.873E-01,4C000000*,-703.0,967.427,91,27.3,45.0,0.408,737.2,2.1,1.050*
2018-07-17 01:35:00,-2.598E-01,4C000000*,-703.0,969.044,89,27.3,44.9,0.408,737.2,2.1,1.050*
2018-07-17 01:36:00,-2.924E-01,4C000000*,-702.6,967.427,90,27.4,45.0,0.408,737.5,2.1,1.050*
2018-07-17 01:37:00,-3.016E-01,4C000000*,-703.0,968.235,90,27.3,44.8,0.408,737.5,2.1,1.050*
2018-07-17 01:38:00,-3.165E-01,4C000000*,-702.6,968.235,91,27.4,45.1,0.408,737.5,2.1,1.050*
2018-07-17 01:39:00,-2.873E-01,4C000000*,-703.0,969.044,89,27.4,45.0,0.408,737.5,2.1,1.050*
2018-07-17 01:40:00,-2.519E-01,4C000000*,-702.6,968.235,88,27.4,44.8,0.408,737.5,2.1,1.050*
2018-07-17 01:41:00,-2.203E-01,4C000000*,-702.6,968.235,90,27.4,45.1,0.408,737.8,2.1,1.050*
2018-07-17 01:42:00,-2.394E-01,4C000000*,-703.0,969.044,89,27.3,44.9,0.408,737.5,2.1,1.050*
2018-07-17 01:43:00,-2.272E-01,4C000000*,-702.6,969.044,91,27.3,44.9,0.408,737.5,2.1,1.050*
2018-07-17 01:44:00,-2.370E-01,4C000000*,-702.6,967.427,89,27.3,45.1,0.408,737.5,2.1,1.050*
2018-07-17 01:45:00,-2.450E-01,4C000000*,-702.6,967.831,90,27.3,44.9,0.408,737.5,2.1,1.050*
2018-07-17 01:46:00,-3.441E-01,4C000000*,-702.6,968.235,90,27.4,45.1,0.408,737.5,2.1,1.050*
2018-07-17 01:47:00,-3.733E-01,4C000000*,-702.6,968.639,91,27.2,44.8,0.408,737.5,2.1,1.050*
2018-07-17 01:48:00,-3.655E-01,4C000000*,-702.6,966.214,90,27.4,45.0,0.408,737.5,2.1,1.050*
2018-07-17 01:49:00,-2.391E-01,4C000000*,-702.6,968.235,90,27.2,45.0,0.408,737.5,2.1,1.050*
2018-07-17 01:50:00,-3.087E-01,4C000000*,-702.6,967.831,90,27.3,44.8,0.408,737.8,2.1,1.050*
2018-07-17 01:51:00,-3.259E-01,4C000000*,-703.0,967.831,89,27.3,45.2,0.408,737.5,2.1,1.050*
2018-07-17 01:52:00,-2.862E-01,4C000000*,-703.0,967.831,89,27.3,44.9,0.408,737.5,2.1,1.050*
2018-07-17 01:53:00,-3.034E-01,4C000000*,-702.6,968.235,89,27.3,45.0,0.408,737.5,2.1,1.050*
2018-07-17 01:54:00,-2.871E-01,4C000000*,-703.0,968.235,90,27.3,44.9,0.408,737.5,2.1,1.050*
2018-07-17 01:55:00,-2.994E-01,4C000000*,-703.0,969.044,90,27.3,44.9,0.408,737.8,2.1,1.050*
2018-07-17 01:56:00,-3.056E-01,4C000000*,-702.6,968.235,91,27.3,45.1,0.408,737.5,2.1,1.050*
2018-07-17 01:57:00,-3.406E-01,4C000000*,-702.6,968.235,89,27.2,44.9,0.407,737.8,2.1,1.050*
2018-07-17 01:58:00,-2.397E-01,4C000000*,-702.6,967.022,90,27.3,45.0,0.408,737.5,2.1,1.050*
2018-07-17 01:59:00,-2.178E-01,4C000000*,-702.6,969.448,91,27.3,44.8,0.408,737.8,2.1,1.050*
2018-07-17 02:00:00,-2.549E-01,4C000000*,-703.0,967.022,90,27.2,45.0,0.408,737.8,2.1,1.050*
2018-07-17 02:01:00,-3.049E-01,4C000000*,-703.0,967.427,90,27.2,45.1,0.408,737.8,2.1,1.050*
2018-07-17 02:02:00,-2.640E-01,4C000000*,-703.0,967.831,89,27.3,44.8,0.407,737.8,2.1,1.050*
2018-07-17 02:03:00,-2.144E-01,4C000000*,-702.6,968.639,90,27.2,45.1,0.408,737.8,2.1,1.050*
2018-07-17 02:04:00,-2.571E-01,4C000000*,-702.6,967.427,90,27.3,44.8,0.408,737.8,2.1,1.050*
2018-07-17 02:05:00,-2.911E-01,4C000000*,-703.0,968.235,90,27.2,45.0,0.408,737.8,2.1,1.050*
2018-07-17 02:06:00,-2.301E-01,4C000000*,-703.0,968.235,91,27.2,44.9,0.408,737.8,2.1,1.050*
2018-07-17 02:07:00,-2.576E-01,4C000000*,-702.6,969.852,90,27.2,44.9,0.408,737.8,2.1,1.050*
2018-07-17 02:08:00,-2.834E-01,4C000000*,-702.6,969.044,90,27.2,45.1,0.408,737.8,2.1,1.050*
2018-07-17 02:09:00,-3.039E-01,4C000000*,-703.0,968.639,89,27.2,44.8,0.408,737.8,2.1,1.050*
2018-07-17 02:10:00,-1.746E-01,4C000000*,-702.6,971.065,91,27.3,45.0,0.407,737.8,2.1,1.050*
2018-07-17 02:11:00,-3.130E-01,4C000000*,-703.0,968.639,90,27.3,45.0,0.408,737.8,2.1,1.050*
2018-07-17 02:12:00,-3.313E-01,4C000000*,-702.6,969.448,91,27.2,44.8,0.408,737.8,2.1,1.050*
2018-07-17 02:13:00,-2.676E-01,4C000000*,-702.6,967.831,90,27.2,45.2,0.408,737.8,2.1,1.050*
2018-07-17 02:14:00,-2.919E-01,4C000000*,-703.4,968.235,89,27.2,44.8,0.408,737.8,2.2,1.050*
2018-07-17 02:15:00,-2.971E-01,4C000000*,-702.6,969.448,90,27.2,45.0,0.408,737.8,2.1,1.050*
2018-07-17 02:16:00,-2.481E-01,4C000000*,-703.0,968.639,89,27.2,44.9,0.408,737.8,2.1,1.050*
2018-07-17 02:17:00,-2.528E-01,4C000000*,-702.6,968.235,90,27.2,44.9,0.408,737.8,2.1,1.050*
2018-07-17 02:18:00,-3.421E-01,4C000000*,-702.6,968.235,89,27.2,45.2,0.408,737.8,2.1,1.050*
2018-07-17 02:19:00,-3.802E-01,4C000000*,-702.6,969.852,90,27.2,44.8,0.408,737.8,2.1,1.050*
2018-07-17 02:20:00,-3.146E-01,4C000000*,-703.0,968.639,89,27.3,45.0,0.408,738.1,2.1,1.050*
2018-07-17 02:21:00,-2.098E-01,4C000000*,-702.6,970.256,90,27.3,45.0,0.408,737.8,2.1,1.050*
2018-07-17 02:22:00,-2.718E-01,4C000000*,-703.0,968.235,90,27.2,44.8,0.408,738.1,2.1,1.050*
2018-07-17 02:23:00,-2.002E-01,4C000000*,-702.3,969.044,89,27.2,45.1,0.408,738.1,2.1,1.050*
2018-07-17 02:24:00,-2.644E-01,4C000000*,-702.6,969.448,89,27.3,44.9,0.408,737.8,2.1,1.050*
2018-07-17 02:25:00,-3.223E-01,4C000000*,-702.6,969.448,90,27.2,45.0,0.408,737.8,2.1,1.050*
2018-07-17 02:26:00,-2.657E-01,4C000000*,-703.0,969.448,90,27.2,45.0,0.408,737.8,2.1,1.050*
2018-07-17 02:27:00,-2.796E-01,4C000000*,-702.6,970.661,91,27.3,44.9,0.408,738.1,2.1,1.050*
2018-07-17 02:28:00,-4.032E-01,4C000000*,-702.6,968.235,91,27.1,45.1,0.408,737.8,2.1,1.050*
2018-07-17 02:29:00,-2.917E-01,4C000000*,-703.0,969.044,90,27.2,44.8,0.408,738.1,2.1,1.050*
2018-07-17 02:30:00,-2.757E-01,4C000000*,-702.6,968.639,90,27.2,45.1,0.408,738.1,2.1,1.050*
2018-07-17 02:31:00,-3.499E-01,4C000000*,-702.6,968.235,88,27.2,44.9,0.408,738.1,2.1,1.050*
2018-07-17 02:32:00,-3.393E-01,4C000000*,-703.0,968.235,88,27.3,45.1,0.408,738.1,2.1,1.050*
2018-07-17 02:33:00,-3.611E-01,4C000000*,-703.0,969.044,90,27.2,45.0,0.408,737.8,2.1,1.050*
2018-07-17 02:34:00,-2.868E-01,4C000000*,-703.4,968.235,88,27.2,44.9,0.408,738.1,2.1,1.050*
2018-07-17 02:35:00,-3.167E-01,4C000000*,-702.6,968.639,89,27.2,45.1,0.408,738.1,2.1,1.050*
2018-07-17 02:36:00,-2.981E-01,4C000000*,-702.6,969.448,89,27.2,44.8,0.408,738.1,2.1,1.050*
2018-07-17 02:37:00,-2.630E-01,4C000000*,-702.6,968.235,91,27.2,45.2,0.408,738.4,2.1,1.050*
2018-07-17 02:38:00,-2.341E-01,4C000000*,-702.6,967.831,89,27.1,44.8,0.408,738.1,2.1,1.050*
2018-07-17 02:39:00,-1.900E-01,4C000000*,-702.6,969.044,89,27.2,45.1,0.408,738.4,2.1,1.050*
2018-07-17 02:40:00,-3.573E-01,4C000000*,-702.6,969.448,89,27.2,44.9,0.408,738.1,2.1,1.050*
2018-07-17 02:41:00,-2.982E-01,4C000000*,-702.6,969.044,90,27.2,45.0,0.408,738.4,2.1,1.050*
2018-07-17 02:42:00,-2.152E-01,4C000000*,-703.0,969.044,90,27.2,45.1,0.408,738.1,2.1,1.050*
2018-07-17 02:43:00,-2.849E-01,4C000000*,-702.6,968.639,89,27.1,44.8,0.408,738.1,2.1,1.050*
2018-07-17 02:44:00,-1.549E-01,4C000000*,-703.0,967.831,90,27.2,45.1,0.408,738.1,2.1,1.050*
2018-07-17 02:45:00,-2.632E-01,4C000000*,-702.6,968.235,90,27.2,44.8,0.408,738.1,2.1,1.050*
2018-07-17 02:46:00,-3.668E-01,4C000000*,-702.6,967.831,89,27.2,44.9,0.408,738.4,2.1,1.050*
2018-07-17 02:47:00,-2.503E-01,4C000000*,-703.0,968.235,89,27.2,45.1,0.408,738.1,2.1,1.050*
2018-07-17 02:48:00,-3.499E-01,4C000000*,-703.0,968.235,90,27.2,44.7,0.408,738.1,2.1,1.050*
2018-07-17 02:49:00,-2.544E-01,4C000000*,-702.6,969.044,90,27.2,44.9,0.408,738.4,2.1,1.050*
2018-07-17 02:50:00,-2.929E-01,4C000000*,-702.6,968.639,91,27.2,45.0,0.408,738.1,2.1,1.050*
2018-07-17 02:51:00,-2.953E-01,4C000000*,-703.0,968.235,88,27.2,44.8,0.408,738.4,2.1,1.050*
2018-07-17 02:52:00,-2.427E-01,4C000000*,-702.6,969.044,90,27.2,45.0,0.408,738.4,2.1,1.050*
2018-07-17 02:53:00,-2.817E-01,4C000000*,-702.6,968.235,89,27.2,45.1,0.408,738.1,2.1,1.050*
2018-07-17 02:54:00,-1.981E-01,4C000000*,-702.6,968.235,90,27.2,44.8,0.408,738.4,2.1,1.050*
2018-07-17 02:55:00,-3.026E-01,4C000000*,-703.0,967.831,90,27.2,45.1,0.408,738.1,2.1,1.050*
2018-07-17 02:56:00,-2.697E-01,4C000000*,-703.0,968.639,90,27.2,44.9,0.408,738.1,2.1,1.050*
2018-07-17 02:57:00,-2.945E-01,4C000000*,-703.0,968.235,90,27.2,44.9,0.408,738.1,2.1,1.050*
2018-07-17 02:58:00,-2.245E-01,4C000000*,-702.6,968.235,91,27.2,45.2,0.408,738.1,2.1,1.050*
2018-07-17 02:59:00,-3.031E-01,4C000000*,-702.6,968.639,89,27.2,44.8,0.408,738.4,2.1,1.050*
2018-07-17 03:00:00,-2.268E-01,4C000000*,-702.6,968.639,90,27.2,45.0,0.408,738.1,2.1,1.050*
2018-07-17 03:01:00,-3.542E-01,4C000000*,-703.0,968.235,90,27.2,45.1,0.408,738.4,2.1,1.050*
2018-07-17 03:02:00,-3.141E-01,4C000000*,-703.0,969.044,89,27.2,44.8,0.408,738.4,2.1,1.050*
2018-07-17 03:03:00,-3.511E-01,4C000000*,-702.6,968.639,89,27.1,45.0,0.408,738.4,2.1,1.050*
2018-07-17 03:04:00,-2.964E-01,4C000000*,-703.0,969.852,90,27.2,45.1,0.408,738.4,2.1,1.050*
2018-07-17 03:05:00,-1.697E-01,4C000000*,-702.6,968.235,92,27.2,44.8,0.408,738.4,2.1,1.050*
2018-07-17 03:06:00,-3.152E-01,4C000000*,-703.0,967.831,90,27.2,45.1,0.408,738.4,2.1,1.050*
2018-07-17 03:07:00,-1.987E-01,4C000000*,-702.6,969.044,89,27.2,44.9,0.408,738.1,2.1,1.050*
2018-07-17 03:08:00,-2.625E-01,4C000000*,-703.0,968.639,90,27.2,44.9,0.408,738.4,2.1,1.050*
2018-07-17 03:09:00,-3.002E-01,4C000000*,-703.0,969.044,91,27.2,45.2,0.408,738.4,2.1,1.050*
2018-07-17 03:10:00,-2.461E-01,4C000000*,-702.6,969.448,91,27.2,44.8,0.408,738.4,2.1,1.050*
2018-07-17 03:11:00,-3.235E-01,4C000000*,-703.0,967.831,89,27.2,45.0,0.408,738.4,2.1,1.050*
2018-07-17 03:12:00,-2.899E-01,4C000000*,-702.6,969.448,90,27.2,45.0,0.408,738.4,2.1,1.050*
2018-07-17 03:13:00,-3.125E-01,4C000000*,-702.6,969.044,90,27.1,44.9,0.408,738.4,2.1,1.050*
2018-07-17 03:14:00,-2.809E-01,4C000000*,-703.0,967.022,90,27.1,45.1,0.408,738.4,2.1,1.050*
2018-07-17 03:15:00,-2.789E-01,4C000000*,-702.6,967.831,90,27.1,44.8,0.408,738.4,2.1,1.050*
2018-07-17 03:16:00,-2.405E-01,4C000000*,-702.6,970.661,90,27.1,45.2,0.408,738.4,2.1,1.050*
2018-07-17 03:17:00,-3.060E-01,4C000000*,-702.6,968.235,90,27.1,44.8,0.408,738.4,2.1,1.050*
2018-07-17 03:18:00,-2.273E-01,4C000000*,-702.6,969.044,89,27.1,45.0,0.408,738.1,2.1,1.050*
2018-07-17 03:19:00,-1.687E-01,4C000000*,-702.6,969.448,90,27.2,44.9,0.408,738.4,2.1,1.050*
2018-07-17 03:20:00,-3.420E-01,4C000000*,-702.6,968.639,90,27.1,44.9,0.408,738.7,2.1,1.050*
2018-07-17 03:21:00,-2.761E-01,4C000000*,-703.0,969.044,89,27.2,45.2,0.408,738.7,2.1,1.050*
2018-07-17 03:22:00,-3.067E-01,4C000000*,-703.0,970.256,88,27.2,44.8,0.408,738.7,2.1,1.050*
2018-07-17 03:23:00,-3.157E-01,4C000000*,-702.6,969.044,89,27.1,45.0,0.408,738.7,2.1,1.050*
2018-07-17 03:24:00,-3.426E-01,4C000000*,-703.0,969.448,90,27.2,45.1,0.408,738.4,2.1,1.050*
2018-07-17 03:25:00,-2.852E-01,4C000000*,-702.3,968.639,89,27.2,44.8,0.408,738.7,2.1,1.050*
2018-07-17 03:26:00,-2.725E-01,4C000000*,-702.6,968.235,91,27.1,45.0,0.408,738.7,2.1,1.050*
2018-07-17 03:27:00,-2.773E-01,4C000000*,-702.6,969.448,89,27.1,45.0,0.408,738.7,2.1,1.050*
2018-07-17 03:28:00,-2.542E-01,4C000000*,-703.0,969.044,91,27.1,44.8,0.408,738.7,2.1,1.050*
2018-07-17 03:29:00,-2.633E-01,4C000000*,-702.6,969.448,91,27.2,45.1,0.408,739.0,2.1,1.050*
2018-07-17 03:30:00,-2.541E-01,4C000000*,-702.6,968.639,89,27.2,44.9,0.408,738.7,2.1,1.050*
2018-07-17 03:31:00,-2.186E-01,4C000000*,-702.6,969.044,91,27.2,44.9,0.408,738.7,2.1,1.050*
2018-07-17 03:32:00,-2.899E-01,4C000000*,-702.6,968.639,90,27.1,45.2,0.408,738.7,2.1,1.050*
2018-07-17 03:33:00,-3.248E-01,4C000000*,-703.0,968.235,89,27.1,44.8,0.408,739.0,2.1,1.050*
2018-07-17 03:34:00,-2.232E-01,4C000000*,-702.3,968.235,89,27.1,44.9,0.408,739.0,2.1,1.050*
2018-07-17 03:35:00,-1.682E-01,4C000000*,-702.6,969.852,89,27.0,45.1,0.408,739.0,2.1,1.050*
2018-07-17 03:36:00,-3.640E-01,4C000000*,-703.0,969.044,91,27.0,44.8,0.408,738.7,2.1,1.050*
2018-07-17 03:37:00,-2.179E-01,4C000000*,-702.6,969.044,89,27.1,45.1,0.408,739.0,2.1,1.050*
2018-07-17 03:38:00,-3.672E-01,4C000000*,-703.0,969.852,88,27.1,44.9,0.408,738.7,2.1,1.050*
2018-07-17 03:39:00,-2.960E-01,4C000000*,-703.0,969.852,90,27.1,44.9,0.408,739.0,2.1,1.050*
2018-07-17 03:40:00,-3.052E-01,4C000000*,-703.0,968.639,91,27.1,45.1,0.408,738.7,2.1,1.050*
2018-07-17 03:41:00,-2.714E-01,4C000000*,-702.6,969.448,91,27.1,44.9,0.408,739.0,2.1,1.050*
2018-07-17 03:42:00,-2.768E-01,4C000000*,-702.6,968.235,91,27.2,45.0,0.409,738.7,2.1,1.050*
2018-07-17 03:43:00,-3.433E-01,4C000000*,-703.0,968.639,90,27.1,44.8,0.409,738.7,2.1,1.050*
2018-07-17 03:44:00,-2.198E-01,4C000000*,-702.6,968.235,89,27.1,45.0,0.408,738.7,2.1,1.050*
2018-07-17 03:45:00,-2.971E-01,4C000000*,-702.6,969.044,89,27.1,44.9,0.408,739.0,2.1,1.050*
2018-07-17 03:46:00,-2.574E-01,4C000000*,-702.6,969.044,90,27.1,44.8,0.408,738.7,2.1,1.050*
2018-07-17 03:47:00,-2.896E-01,4C000000*,-703.0,969.852,89,27.1,45.1,0.408,738.7,2.1,1.050*
2018-07-17 03:48:00,-2.531E-01,4C000000*,-702.6,970.256,89,27.1,44.8,0.408,738.7,2.1,1.050*
2018-07-17 03:49:00,-2.884E-01,4C000000*,-703.0,968.639,90,27.1,44.9,0.408,739.0,2.1,1.050*
2018-07-17 03:50:00,-2.382E-01,4C000000*,-702.6,969.448,90,27.0,45.2,0.408,738.7,2.1,1.050*
2018-07-17 03:51:00,-2.393E-01,4C000000*,-703.0,969.044,90,27.0,44.8,0.409,738.7,2.1,1.050*
2018-07-17 03:52:00,-2.529E-01,4C000000*,-703.0,969.044,91,27.0,45.0,0.408,738.7,2.1,1.050*
2018-07-17 03:53:00,-2.862E-01,4C000000*,-703.0,968.639,90,27.1,45.0,0.408,739.0,2.1,1.050*
2018-07-17 03:54:00,-2.773E-01,4C000000*,-703.0,971.065,91,27.1,44.8,0.409,739.0,2.1,1.050*
2018-07-17 03:55:00,-3.283E-01,4C000000*,-702.6,969.852,91,27.1,45.0,0.409,739.0,2.1,1.050*
2018-07-17 03:56:00,-3.535E-01,4C000000*,-703.0,969.044,91,27.1,44.9,0.408,738.7,2.1,1.050*
2018-07-17 03:57:00,-2.196E-01,4C000000*,-702.6,968.235,89,27.0,45.0,0.408,738.7,2.1,1.050*
2018-07-17 03:58:00,-3.358E-01,4C000000*,-702.6,971.469,90,27.0,44.9,0.408,738.7,2.1,1.050*
2018-07-17 03:59:00,-3.876E-01,4C000000*,-703.4,969.852,91,27.1,44.9,0.408,739.0,2.1,1.050*
2018-07-17 04:00:00,-3.073E-01,4C000000*,-702.6,969.044,90,27.1,45.1,0.408,738.7,2.1,1.050*
2018-07-17 04:01:00,-1.872E-01,4C000000*,-702.6,968.235,90,27.1,44.8,0.408,738.7,2.1,1.050*
2018-07-17 04:02:00,-3.233E-01,4C000000*,-703.0,969.044,89,27.1,44.9,0.408,738.7,2.1,1.050*
2018-07-17 04:03:00,-1.874E-01,4C000000*,-703.0,968.235,91,27.1,45.1,0.408,738.7,2.1,1.050*
2018-07-17 04:04:00,-1.824E-01,4C000000*,-703.0,969.852,90,27.0,44.8,0.408,738.7,2.1,1.050*
2018-07-17 04:05:00,-3.317E-01,4C000000*,-703.0,969.448,91,27.0,45.1,0.408,738.7,2.1,1.050*
2018-07-17 04:06:00,-2.299E-01,4C000000*,-702.6,968.235,89,27.0,45.0,0.408,739.0,2.1,1.050*
2018-07-17 04:07:00,-2.819E-01,4C000000*,-702.6,969.448,89,27.1,44.8,0.408,739.0,2.1,1.050*
2018-07-17 04:08:00,-3.192E-01,4C000000*,-703.0,968.235,90,27.0,45.0,0.408,739.0,2.1,1.050*
2018-07-17 04:09:00,-2.716E-01,4C000000*,-702.6,969.044,90,27.0,44.9,0.408,739.0,2.1,1.050*
2018-07-17 04:10:00,-2.879E-01,4C000000*,-703.0,969.448,90,27.1,44.9,0.408,739.3,2.1,1.050*
2018-07-17 04:11:00,-2.606E-01,4C000000*,-703.0,969.044,89,27.1,45.1,0.408,739.0,2.1,1.050*
2018-07-17 04:12:00,-2.676E-01,4C000000*,-702.6,969.852,90,27.0,44.8,0.408,738.7,2.1,1.050*
2018-07-17 04:13:00,-3.350E-01,4C000000*,-702.6,967.427,90,27.0,44.9,0.408,739.0,2.1,1.050*
2018-07-17 04:14:00,-2.879E-01,4C000000*,-703.0,968.639,89,27.1,45.2,0.408,739.0,2.1,1.050*